Change the Weather History Date:

Sunday, January 25, 2015

  Actual Average Record
Temperature  
Mean Temperature 44 °F 29 °F  
Max Temperature 55 °F 41 °F 65 °F (1935)
Min Temperature 32 °F 16 °F -15 °F (1937)
Degree Days  
Heating Degree Days 21 36  
Month to date heating degree days 934 920  
Cooling Degree Days 0 0  
Month to date cooling degree days 0 0  
Year to date cooling degree days 0 0  
Moisture  
Dew Point 27 °F    
Average Humidity 48    
Maximum Humidity 70    
Minimum Humidity 26    
Precipitation  
Precipitation 0.00 in 0.01 in 0.91 in (1921)
Sea Level Pressure  
Sea Level Pressure 30.10 in    
Wind  
Wind Speed 16 mph (NW)    
Max Wind Speed 28 mph    
Max Gust Speed 36 mph    
Visibility 10 miles    
Events      
T = Trace of Precipitation, MM = Missing Value Source: NWS Daily Summary

Daily Weather History Graph

Daily Weather History Graph

Search for Another Location

Airport or City:

Trip Planner

Search our weather history database for the weather conditions in past years. The results will help you decide how hot, cold, wet, or windy it might be!

Date:

Astronomy

Jan. 25, 2015 Rise Set
Actual Time 7:02 AM MST 4:55 PM MST
Civil Twilight 6:32 AM MST 5:25 PM MST
Nautical Twilight 5:59 AM MST 5:58 PM MST
Astronomical Twilight 5:27 AM MST 6:30 PM MST
Moon 10:07 AM MST (1/25) 11:24 PM MST (1/25)
Length of Visible Light 10h 52m
Length of Day
9h 53m
Waxing Crescent, 34% of the Moon is Illuminated
Jan 25
Waxing Crescent
Jan 26
First Quarter
Feb 3
Full
Feb 11
Last Quarter
Feb 18
New

Hourly Weather History & Observations

Time (MST) Temp. Windchill Dew Point Humidity Pressure Visibility Wind Dir Wind Speed Gust Speed Precip Events Conditions
12:53 AM 37.9 °F 27.3 °F 27.0 °F 65% 30.02 in 10.0 mi NW 21.9 mph 29.9 mph N/A   Clear
1:53 AM 39.0 °F 28.5 °F 25.0 °F 57% 30.04 in 10.0 mi NW 23.0 mph 33.4 mph N/A   Clear
2:53 AM 39.0 °F 28.5 °F 23.0 °F 53% 30.06 in 10.0 mi NW 23.0 mph 32.2 mph N/A   Clear
3:53 AM 39.0 °F 28.8 °F 21.9 °F 50% 30.06 in 10.0 mi NW 21.9 mph - N/A   Clear
4:53 AM 37.0 °F 27.0 °F 21.9 °F 54% 30.08 in 10.0 mi NW 18.4 mph - N/A   Clear
5:53 AM 35.1 °F 25.9 °F 23.0 °F 61% 30.10 in 10.0 mi NNW 13.8 mph - N/A   Clear
6:53 AM 33.1 °F 23.9 °F 23.0 °F 66% 30.12 in 10.0 mi NNW 12.7 mph - N/A   Clear
7:53 AM 34.0 °F 25.5 °F 24.1 °F 67% 30.13 in 10.0 mi NW 11.5 mph - N/A   Clear
8:53 AM 37.9 °F 31.5 °F 26.1 °F 62% 30.13 in 10.0 mi NW 9.2 mph - N/A   Clear
9:53 AM 44.1 °F 35.7 °F 28.0 °F 53% 30.14 in 10.0 mi NNW 20.7 mph - N/A   Clear
10:53 AM 48.9 °F - 26.1 °F 41% 30.13 in 10.0 mi NNW 21.9 mph - N/A   Clear
11:53 AM 52.0 °F - 21.0 °F 30% 30.09 in 10.0 mi NNW 24.2 mph 31.1 mph N/A   Clear
12:53 PM 54.0 °F - 19.9 °F 26% 30.09 in 10.0 mi NW 23.0 mph 31.1 mph N/A   Clear
1:53 PM 55.0 °F - 21.9 °F 28% 30.06 in 10.0 mi NW 21.9 mph 29.9 mph N/A   Clear
2:53 PM 54.0 °F - 28.0 °F 37% 30.07 in 10.0 mi NW 17.3 mph - N/A   Clear
3:53 PM 52.0 °F - 32.0 °F 47% 30.09 in 10.0 mi NNW 15.0 mph - N/A   Overcast
4:53 PM 46.9 °F - 30.9 °F 54% 30.11 in 10.0 mi NW 5.8 mph - N/A   Scattered Clouds
5:53 PM 46.9 °F - 32.0 °F 56% 30.12 in 10.0 mi WNW 4.6 mph - N/A   Overcast
6:53 PM 43.0 °F 38.8 °F 32.0 °F 65% 30.14 in 10.0 mi WSW 6.9 mph - N/A   Overcast
7:53 PM 41.0 °F 35.2 °F 32.0 °F 70% 30.14 in 10.0 mi WSW 9.2 mph - N/A   Mostly Cloudy
8:53 PM 43.0 °F 37.2 °F 30.0 °F 60% 30.11 in 10.0 mi West 10.4 mph - N/A   Overcast
9:53 PM 39.0 °F 31.4 °F 28.9 °F 67% 30.11 in 10.0 mi WNW 12.7 mph - N/A   Clear
10:53 PM 42.1 °F 35.2 °F 30.0 °F 62% 30.09 in 10.0 mi WNW 12.7 mph - N/A   Clear
11:53 PM 42.1 °F 34.5 °F 30.0 °F 62% 30.07 in 10.0 mi WNW 15.0 mph - N/A   Clear